THORAD DELTA 1 DEB, 10392

Orbit data source: Space-Track

THORAD DELTA 1 DEB, 10392 is space debris in SSO originally from a launch on Fri, 15 Nov 1974 UTC launched from the Air Force Western Test Range (AFWTR). Debris objects in space refer to the collection of defunct objects orbiting the Earth. Examples of debris include non-operational satellites, rocket bodies, and fragments generated from explosions, collisions, or faulty payload assembly.

Loading next visibility...
Identifier
10392, 1974-089EH
Orbit
SSO
Country
Flag of USUS
Related business
Manufacturer
Unknown
Mission
Spacecraft
Bus & Motor
Unknown
Mass
Unknown
Launch date (UTC)
1974-11-15 (51 years ago)
Launch vehicle
Unknown
Launch site
Air Force Western Test Range (AFWTR)
Object type
Payload
Rocket body
Debris
Shape & HBR
Unknown shape, 0.1 m
Radar Cross Section
Small (<0.1 m²)

Expand to show TLE details & history
Last TLE update: 8 hours ago

TLE from 8 hours ago
0 THORAD DELTA 1 DEB
1 10392U 74089EH  25288.87075308 -.00000038  00000-0  26088-4 0  9996
2 10392 101.2543 334.5319 0050242  36.6018 144.9832 12.60130337344017
Epoch: 2025-10-15T20:53Z
TLE epoch observation values (Epoch: 2025-10-15T20:53:53.066Z)
Latitude
-1.99339°
Longitude
176.02729°
Altitude
1,457.46 km
Speed
7.119 km/s
True Right ascension
10h 16m 32s
True Declination
-1° 58' 57"
Sunlit
Object was in daylight at epoch
Visualization orbit readout
Latitude
Unknown
Longitude
Unknown
Altitude
Unknown
Speed
Unknown
Apparent Right ascension
Unknown
Apparent Declination
Unknown
Sunlit
N/A
Visualization observer readout
Local Sidereal Time
00:02:48
Azimuth
Unknown
Elevation
Unknown
Doppler factor
Unknown
Orbital elements
Apogee altitude
1,459.09 km
Perigee altitude
1,380.732 km
Semi-major axis
7,798.048 km
Eccentricity
0.00502
Inclination
101.2543°
RAAN
334.5319°
Arg. of periapsis
36.6018°
True anomaly
145.31187°
Mean anomaly
144.9832°
Eccentric anomaly
145.1477°
Mean motion
3.15184 °/min
Orbital period
114.22 mins
BSTAR
0.000026088
Loading maneuver chart data...
Computing Atmospheric mass density...

Documentation

Showing up to 5 results
|